sat.trackr.live / text

‹ back to catalog

STARLINK-32423

NORAD 61218 · 2024-171U

PAYLOAD ACTIVE UNKNOWN

§ Identity

Operator
Country
US
Launch date
2024-09-20
Launch site
AFWTR
Launch vehicle
Mass (kg)
RCS (m²)

Purposes: comms

External: N2YO · Heavens-Above · Gunter

§ Orbital elements

Epoch: 2026-05-24T16:26:44.725632Z

Period
94.11 min
Inclination
53.1607°
Eccentricity
0.0001154
Mean motion
15.30191761 rev/d
Perigee alt
474.4 km
Apogee alt
476.0 km
Semi-major
6,853.4 km
B*
6.4649e-6
RAAN
329.4600°
Arg perigee
99.8177°
Mean anomaly
260.2954°
Rev number
9,491

§ Raw data

STARLINK-324231 61218U 24171U   26144.68523988 -.00000168  00000+0  64649-5 0  99982 61218  53.1607 329.4600 0001154  99.8177 260.2954 15.30191761 94913

JSON: /api/v1/satellites/61218 · /tle

For live sub-satellite position, see the globe view (requires WebGL).

§ Visibility from observer

Set your observer location to see the next 7 days of passes ≥ 10°. The values pass through the URL so the page stays shareable.

No JS? Fill the form by hand. The geolocation button needs JavaScript.